<?xml version="1.0"?>
<gpx xmlns="http://www.topografix.com/GPX/1/1" xmlns:xsi="http://www.w3.org/2001/XMLSchema-instance" version="1.1" creator="GPX RubyGem 1.0.0 -- http://dougfales.github.io/gpx/" xsi:schemaLocation="http://www.topografix.com/GPX/1/1 http://www.topografix.com/GPX/1/1/gpx.xsd">
  <metadata>
    <name/>
    <time>2026-05-08T19:32:25+00:00</time>
    <bound minlat="90.0" minlon="180.0" maxlat="-90.0" maxlon="-180.0"/>
  </metadata>
  <trk>
    <name/>
    <trkseg>
      <trkpt lat="42.61383" lon="-1.639836">
        <time>1970-01-01T00:00:00+00:00</time>
        <ele>545.0</ele>
      </trkpt>
      <trkpt lat="42.613953" lon="-1.639793">
        <time>1970-01-01T00:00:00+00:00</time>
        <ele>545.0</ele>
      </trkpt>
      <trkpt lat="42.614051" lon="-1.639494">
        <time>1970-01-01T00:00:00+00:00</time>
        <ele>545.0</ele>
      </trkpt>
      <trkpt lat="42.614849" lon="-1.639251">
        <time>1970-01-01T00:00:00+00:00</time>
        <ele>545.0</ele>
      </trkpt>
      <trkpt lat="42.615902" lon="-1.638951">
        <time>1970-01-01T00:00:00+00:00</time>
        <ele>547.0</ele>
      </trkpt>
      <trkpt lat="42.616707" lon="-1.638791">
        <time>1970-01-01T00:00:00+00:00</time>
        <ele>547.0</ele>
      </trkpt>
      <trkpt lat="42.620466" lon="-1.638311">
        <time>1970-01-01T00:00:00+00:00</time>
        <ele>528.0</ele>
      </trkpt>
      <trkpt lat="42.620887" lon="-1.638264">
        <time>1970-01-01T00:00:00+00:00</time>
        <ele>532.0</ele>
      </trkpt>
      <trkpt lat="42.621935" lon="-1.638115">
        <time>1970-01-01T00:00:00+00:00</time>
        <ele>527.0</ele>
      </trkpt>
      <trkpt lat="42.622496" lon="-1.638054">
        <time>1970-01-01T00:00:00+00:00</time>
        <ele>527.0</ele>
      </trkpt>
      <trkpt lat="42.623187" lon="-1.638002">
        <time>1970-01-01T00:00:00+00:00</time>
        <ele>527.0</ele>
      </trkpt>
      <trkpt lat="42.623942" lon="-1.638042">
        <time>1970-01-01T00:00:00+00:00</time>
        <ele>531.0</ele>
      </trkpt>
      <trkpt lat="42.626363" lon="-1.638371">
        <time>1970-01-01T00:00:00+00:00</time>
        <ele>534.0</ele>
      </trkpt>
      <trkpt lat="42.627174" lon="-1.638508">
        <time>1970-01-01T00:00:00+00:00</time>
        <ele>536.0</ele>
      </trkpt>
      <trkpt lat="42.627443" lon="-1.63861">
        <time>1970-01-01T00:00:00+00:00</time>
        <ele>538.0</ele>
      </trkpt>
      <trkpt lat="42.628368" lon="-1.639067">
        <time>1970-01-01T00:00:00+00:00</time>
        <ele>539.0</ele>
      </trkpt>
      <trkpt lat="42.62869" lon="-1.639165">
        <time>1970-01-01T00:00:00+00:00</time>
        <ele>540.0</ele>
      </trkpt>
      <trkpt lat="42.629187" lon="-1.639196">
        <time>1970-01-01T00:00:00+00:00</time>
        <ele>541.0</ele>
      </trkpt>
      <trkpt lat="42.630525" lon="-1.63906">
        <time>1970-01-01T00:00:00+00:00</time>
        <ele>542.0</ele>
      </trkpt>
      <trkpt lat="42.632561" lon="-1.639013">
        <time>1970-01-01T00:00:00+00:00</time>
        <ele>553.0</ele>
      </trkpt>
      <trkpt lat="42.635026" lon="-1.638979">
        <time>1970-01-01T00:00:00+00:00</time>
        <ele>561.0</ele>
      </trkpt>
      <trkpt lat="42.635926" lon="-1.639129">
        <time>1970-01-01T00:00:00+00:00</time>
        <ele>563.0</ele>
      </trkpt>
      <trkpt lat="42.636872" lon="-1.639431">
        <time>1970-01-01T00:00:00+00:00</time>
        <ele>564.0</ele>
      </trkpt>
      <trkpt lat="42.638369" lon="-1.639848">
        <time>1970-01-01T00:00:00+00:00</time>
        <ele>572.0</ele>
      </trkpt>
      <trkpt lat="42.647257" lon="-1.642303">
        <time>1970-01-01T00:00:00+00:00</time>
        <ele>589.0</ele>
      </trkpt>
      <trkpt lat="42.649508" lon="-1.642925">
        <time>1970-01-01T00:00:00+00:00</time>
        <ele>590.0</ele>
      </trkpt>
      <trkpt lat="42.650041" lon="-1.643178">
        <time>1970-01-01T00:00:00+00:00</time>
        <ele>590.0</ele>
      </trkpt>
      <trkpt lat="42.650313" lon="-1.643217">
        <time>1970-01-01T00:00:00+00:00</time>
        <ele>590.0</ele>
      </trkpt>
      <trkpt lat="42.650491" lon="-1.643195">
        <time>1970-01-01T00:00:00+00:00</time>
        <ele>591.0</ele>
      </trkpt>
      <trkpt lat="42.650625" lon="-1.643067">
        <time>1970-01-01T00:00:00+00:00</time>
        <ele>592.0</ele>
      </trkpt>
      <trkpt lat="42.650726" lon="-1.642933">
        <time>1970-01-01T00:00:00+00:00</time>
        <ele>592.0</ele>
      </trkpt>
      <trkpt lat="42.650787" lon="-1.642728">
        <time>1970-01-01T00:00:00+00:00</time>
        <ele>592.0</ele>
      </trkpt>
      <trkpt lat="42.6508" lon="-1.642255">
        <time>1970-01-01T00:00:00+00:00</time>
        <ele>593.0</ele>
      </trkpt>
      <trkpt lat="42.650803" lon="-1.642125">
        <time>1970-01-01T00:00:00+00:00</time>
        <ele>593.0</ele>
      </trkpt>
      <trkpt lat="42.650822" lon="-1.641205">
        <time>1970-01-01T00:00:00+00:00</time>
        <ele>596.0</ele>
      </trkpt>
      <trkpt lat="42.650814" lon="-1.640668">
        <time>1970-01-01T00:00:00+00:00</time>
        <ele>597.0</ele>
      </trkpt>
      <trkpt lat="42.650714" lon="-1.640076">
        <time>1970-01-01T00:00:00+00:00</time>
        <ele>598.0</ele>
      </trkpt>
      <trkpt lat="42.650558" lon="-1.639343">
        <time>1970-01-01T00:00:00+00:00</time>
        <ele>598.0</ele>
      </trkpt>
      <trkpt lat="42.650465" lon="-1.638682">
        <time>1970-01-01T00:00:00+00:00</time>
        <ele>599.0</ele>
      </trkpt>
      <trkpt lat="42.650461" lon="-1.638634">
        <time>1970-01-01T00:00:00+00:00</time>
        <ele>599.0</ele>
      </trkpt>
      <trkpt lat="42.650409" lon="-1.637907">
        <time>1970-01-01T00:00:00+00:00</time>
        <ele>602.0</ele>
      </trkpt>
      <trkpt lat="42.650278" lon="-1.636967">
        <time>1970-01-01T00:00:00+00:00</time>
        <ele>604.0</ele>
      </trkpt>
      <trkpt lat="42.649852" lon="-1.634484">
        <time>1970-01-01T00:00:00+00:00</time>
        <ele>606.0</ele>
      </trkpt>
      <trkpt lat="42.649585" lon="-1.633019">
        <time>1970-01-01T00:00:00+00:00</time>
        <ele>596.0</ele>
      </trkpt>
      <trkpt lat="42.649267" lon="-1.631763">
        <time>1970-01-01T00:00:00+00:00</time>
        <ele>602.0</ele>
      </trkpt>
      <trkpt lat="42.649211" lon="-1.631422">
        <time>1970-01-01T00:00:00+00:00</time>
        <ele>606.0</ele>
      </trkpt>
      <trkpt lat="42.649296" lon="-1.631371">
        <time>1970-01-01T00:00:00+00:00</time>
        <ele>607.0</ele>
      </trkpt>
      <trkpt lat="42.649806" lon="-1.630885">
        <time>1970-01-01T00:00:00+00:00</time>
        <ele>611.0</ele>
      </trkpt>
      <trkpt lat="42.649955" lon="-1.630672">
        <time>1970-01-01T00:00:00+00:00</time>
        <ele>612.0</ele>
      </trkpt>
      <trkpt lat="42.649997" lon="-1.630611">
        <time>1970-01-01T00:00:00+00:00</time>
        <ele>612.0</ele>
      </trkpt>
      <trkpt lat="42.650256" lon="-1.630055">
        <time>1970-01-01T00:00:00+00:00</time>
        <ele>615.0</ele>
      </trkpt>
      <trkpt lat="42.650314" lon="-1.629867">
        <time>1970-01-01T00:00:00+00:00</time>
        <ele>617.0</ele>
      </trkpt>
      <trkpt lat="42.650361" lon="-1.629572">
        <time>1970-01-01T00:00:00+00:00</time>
        <ele>618.0</ele>
      </trkpt>
      <trkpt lat="42.650465" lon="-1.629224">
        <time>1970-01-01T00:00:00+00:00</time>
        <ele>621.0</ele>
      </trkpt>
      <trkpt lat="42.650542" lon="-1.629124">
        <time>1970-01-01T00:00:00+00:00</time>
        <ele>622.0</ele>
      </trkpt>
      <trkpt lat="42.650582" lon="-1.629072">
        <time>1970-01-01T00:00:00+00:00</time>
        <ele>622.0</ele>
      </trkpt>
      <trkpt lat="42.650672" lon="-1.62881">
        <time>1970-01-01T00:00:00+00:00</time>
        <ele>623.0</ele>
      </trkpt>
      <trkpt lat="42.650858" lon="-1.628084">
        <time>1970-01-01T00:00:00+00:00</time>
        <ele>628.0</ele>
      </trkpt>
      <trkpt lat="42.651036" lon="-1.627649">
        <time>1970-01-01T00:00:00+00:00</time>
        <ele>632.0</ele>
      </trkpt>
      <trkpt lat="42.651461" lon="-1.626693">
        <time>1970-01-01T00:00:00+00:00</time>
        <ele>642.0</ele>
      </trkpt>
      <trkpt lat="42.651585" lon="-1.626481">
        <time>1970-01-01T00:00:00+00:00</time>
        <ele>645.0</ele>
      </trkpt>
      <trkpt lat="42.651847" lon="-1.626249">
        <time>1970-01-01T00:00:00+00:00</time>
        <ele>649.0</ele>
      </trkpt>
      <trkpt lat="42.651965" lon="-1.62618">
        <time>1970-01-01T00:00:00+00:00</time>
        <ele>650.0</ele>
      </trkpt>
      <trkpt lat="42.652026" lon="-1.626128">
        <time>1970-01-01T00:00:00+00:00</time>
        <ele>651.0</ele>
      </trkpt>
      <trkpt lat="42.652057" lon="-1.626068">
        <time>1970-01-01T00:00:00+00:00</time>
        <ele>651.0</ele>
      </trkpt>
      <trkpt lat="42.652098" lon="-1.626043">
        <time>1970-01-01T00:00:00+00:00</time>
        <ele>652.0</ele>
      </trkpt>
      <trkpt lat="42.6522" lon="-1.625911">
        <time>1970-01-01T00:00:00+00:00</time>
        <ele>653.0</ele>
      </trkpt>
      <trkpt lat="42.65242" lon="-1.62572">
        <time>1970-01-01T00:00:00+00:00</time>
        <ele>656.0</ele>
      </trkpt>
      <trkpt lat="42.652486" lon="-1.625632">
        <time>1970-01-01T00:00:00+00:00</time>
        <ele>657.0</ele>
      </trkpt>
      <trkpt lat="42.652667" lon="-1.625216">
        <time>1970-01-01T00:00:00+00:00</time>
        <ele>661.0</ele>
      </trkpt>
      <trkpt lat="42.652903" lon="-1.624779">
        <time>1970-01-01T00:00:00+00:00</time>
        <ele>667.0</ele>
      </trkpt>
      <trkpt lat="42.652925" lon="-1.62476">
        <time>1970-01-01T00:00:00+00:00</time>
        <ele>667.0</ele>
      </trkpt>
      <trkpt lat="42.653037" lon="-1.624452">
        <time>1970-01-01T00:00:00+00:00</time>
        <ele>673.0</ele>
      </trkpt>
      <trkpt lat="42.653046" lon="-1.624374">
        <time>1970-01-01T00:00:00+00:00</time>
        <ele>674.0</ele>
      </trkpt>
      <trkpt lat="42.653024" lon="-1.624182">
        <time>1970-01-01T00:00:00+00:00</time>
        <ele>676.0</ele>
      </trkpt>
      <trkpt lat="42.653026" lon="-1.624052">
        <time>1970-01-01T00:00:00+00:00</time>
        <ele>678.0</ele>
      </trkpt>
      <trkpt lat="42.653091" lon="-1.623719">
        <time>1970-01-01T00:00:00+00:00</time>
        <ele>684.0</ele>
      </trkpt>
      <trkpt lat="42.65321" lon="-1.623364">
        <time>1970-01-01T00:00:00+00:00</time>
        <ele>690.0</ele>
      </trkpt>
      <trkpt lat="42.653268" lon="-1.623234">
        <time>1970-01-01T00:00:00+00:00</time>
        <ele>693.0</ele>
      </trkpt>
      <trkpt lat="42.653397" lon="-1.623016">
        <time>1970-01-01T00:00:00+00:00</time>
        <ele>698.0</ele>
      </trkpt>
      <trkpt lat="42.653553" lon="-1.622659">
        <time>1970-01-01T00:00:00+00:00</time>
        <ele>702.0</ele>
      </trkpt>
      <trkpt lat="42.653726" lon="-1.622363">
        <time>1970-01-01T00:00:00+00:00</time>
        <ele>705.0</ele>
      </trkpt>
      <trkpt lat="42.65389" lon="-1.62189">
        <time>1970-01-01T00:00:00+00:00</time>
        <ele>709.0</ele>
      </trkpt>
      <trkpt lat="42.653907" lon="-1.621857">
        <time>1970-01-01T00:00:00+00:00</time>
        <ele>709.0</ele>
      </trkpt>
      <trkpt lat="42.653934" lon="-1.621803">
        <time>1970-01-01T00:00:00+00:00</time>
        <ele>710.0</ele>
      </trkpt>
      <trkpt lat="42.654" lon="-1.621755">
        <time>1970-01-01T00:00:00+00:00</time>
        <ele>710.0</ele>
      </trkpt>
      <trkpt lat="42.654073" lon="-1.621622">
        <time>1970-01-01T00:00:00+00:00</time>
        <ele>712.0</ele>
      </trkpt>
      <trkpt lat="42.654084" lon="-1.621416">
        <time>1970-01-01T00:00:00+00:00</time>
        <ele>715.0</ele>
      </trkpt>
      <trkpt lat="42.654155" lon="-1.621297">
        <time>1970-01-01T00:00:00+00:00</time>
        <ele>717.0</ele>
      </trkpt>
      <trkpt lat="42.654289" lon="-1.620973">
        <time>1970-01-01T00:00:00+00:00</time>
        <ele>721.0</ele>
      </trkpt>
      <trkpt lat="42.654272" lon="-1.620918">
        <time>1970-01-01T00:00:00+00:00</time>
        <ele>722.0</ele>
      </trkpt>
      <trkpt lat="42.654221" lon="-1.620878">
        <time>1970-01-01T00:00:00+00:00</time>
        <ele>722.0</ele>
      </trkpt>
      <trkpt lat="42.653954" lon="-1.620843">
        <time>1970-01-01T00:00:00+00:00</time>
        <ele>724.0</ele>
      </trkpt>
      <trkpt lat="42.653815" lon="-1.620762">
        <time>1970-01-01T00:00:00+00:00</time>
        <ele>726.0</ele>
      </trkpt>
      <trkpt lat="42.653793" lon="-1.620701">
        <time>1970-01-01T00:00:00+00:00</time>
        <ele>727.0</ele>
      </trkpt>
      <trkpt lat="42.653828" lon="-1.62036">
        <time>1970-01-01T00:00:00+00:00</time>
        <ele>731.0</ele>
      </trkpt>
      <trkpt lat="42.653886" lon="-1.620217">
        <time>1970-01-01T00:00:00+00:00</time>
        <ele>733.0</ele>
      </trkpt>
      <trkpt lat="42.653888" lon="-1.620124">
        <time>1970-01-01T00:00:00+00:00</time>
        <ele>735.0</ele>
      </trkpt>
      <trkpt lat="42.653865" lon="-1.619988">
        <time>1970-01-01T00:00:00+00:00</time>
        <ele>738.0</ele>
      </trkpt>
      <trkpt lat="42.653826" lon="-1.619883">
        <time>1970-01-01T00:00:00+00:00</time>
        <ele>740.0</ele>
      </trkpt>
      <trkpt lat="42.653679" lon="-1.619719">
        <time>1970-01-01T00:00:00+00:00</time>
        <ele>741.0</ele>
      </trkpt>
      <trkpt lat="42.653648" lon="-1.619361">
        <time>1970-01-01T00:00:00+00:00</time>
        <ele>744.0</ele>
      </trkpt>
      <trkpt lat="42.653707" lon="-1.61903">
        <time>1970-01-01T00:00:00+00:00</time>
        <ele>747.0</ele>
      </trkpt>
      <trkpt lat="42.653769" lon="-1.618863">
        <time>1970-01-01T00:00:00+00:00</time>
        <ele>751.0</ele>
      </trkpt>
      <trkpt lat="42.653826" lon="-1.618619">
        <time>1970-01-01T00:00:00+00:00</time>
        <ele>756.0</ele>
      </trkpt>
      <trkpt lat="42.653856" lon="-1.618412">
        <time>1970-01-01T00:00:00+00:00</time>
        <ele>760.0</ele>
      </trkpt>
      <trkpt lat="42.653781" lon="-1.618078">
        <time>1970-01-01T00:00:00+00:00</time>
        <ele>763.0</ele>
      </trkpt>
      <trkpt lat="42.653712" lon="-1.617921">
        <time>1970-01-01T00:00:00+00:00</time>
        <ele>763.0</ele>
      </trkpt>
      <trkpt lat="42.653744" lon="-1.617475">
        <time>1970-01-01T00:00:00+00:00</time>
        <ele>771.0</ele>
      </trkpt>
      <trkpt lat="42.653728" lon="-1.617353">
        <time>1970-01-01T00:00:00+00:00</time>
        <ele>772.0</ele>
      </trkpt>
      <trkpt lat="42.653755" lon="-1.617232">
        <time>1970-01-01T00:00:00+00:00</time>
        <ele>775.0</ele>
      </trkpt>
      <trkpt lat="42.653633" lon="-1.616738">
        <time>1970-01-01T00:00:00+00:00</time>
        <ele>781.0</ele>
      </trkpt>
      <trkpt lat="42.653686" lon="-1.616592">
        <time>1970-01-01T00:00:00+00:00</time>
        <ele>786.0</ele>
      </trkpt>
      <trkpt lat="42.653742" lon="-1.616516">
        <time>1970-01-01T00:00:00+00:00</time>
        <ele>790.0</ele>
      </trkpt>
      <trkpt lat="42.653753" lon="-1.616445">
        <time>1970-01-01T00:00:00+00:00</time>
        <ele>791.0</ele>
      </trkpt>
      <trkpt lat="42.653709" lon="-1.616061">
        <time>1970-01-01T00:00:00+00:00</time>
        <ele>793.0</ele>
      </trkpt>
      <trkpt lat="42.653749" lon="-1.615619">
        <time>1970-01-01T00:00:00+00:00</time>
        <ele>797.0</ele>
      </trkpt>
      <trkpt lat="42.65379" lon="-1.615548">
        <time>1970-01-01T00:00:00+00:00</time>
        <ele>799.0</ele>
      </trkpt>
      <trkpt lat="42.653897" lon="-1.615436">
        <time>1970-01-01T00:00:00+00:00</time>
        <ele>804.0</ele>
      </trkpt>
      <trkpt lat="42.654011" lon="-1.615274">
        <time>1970-01-01T00:00:00+00:00</time>
        <ele>809.0</ele>
      </trkpt>
      <trkpt lat="42.654047" lon="-1.615116">
        <time>1970-01-01T00:00:00+00:00</time>
        <ele>811.0</ele>
      </trkpt>
      <trkpt lat="42.654065" lon="-1.614797">
        <time>1970-01-01T00:00:00+00:00</time>
        <ele>815.0</ele>
      </trkpt>
      <trkpt lat="42.653991" lon="-1.614744">
        <time>1970-01-01T00:00:00+00:00</time>
        <ele>813.0</ele>
      </trkpt>
      <trkpt lat="42.653944" lon="-1.614655">
        <time>1970-01-01T00:00:00+00:00</time>
        <ele>814.0</ele>
      </trkpt>
      <trkpt lat="42.653846" lon="-1.614593">
        <time>1970-01-01T00:00:00+00:00</time>
        <ele>814.0</ele>
      </trkpt>
      <trkpt lat="42.653763" lon="-1.614376">
        <time>1970-01-01T00:00:00+00:00</time>
        <ele>817.0</ele>
      </trkpt>
      <trkpt lat="42.653746" lon="-1.614245">
        <time>1970-01-01T00:00:00+00:00</time>
        <ele>820.0</ele>
      </trkpt>
      <trkpt lat="42.65369" lon="-1.614093">
        <time>1970-01-01T00:00:00+00:00</time>
        <ele>821.0</ele>
      </trkpt>
      <trkpt lat="42.65346" lon="-1.613849">
        <time>1970-01-01T00:00:00+00:00</time>
        <ele>823.0</ele>
      </trkpt>
      <trkpt lat="42.653418" lon="-1.613678">
        <time>1970-01-01T00:00:00+00:00</time>
        <ele>824.0</ele>
      </trkpt>
      <trkpt lat="42.653318" lon="-1.613573">
        <time>1970-01-01T00:00:00+00:00</time>
        <ele>825.0</ele>
      </trkpt>
      <trkpt lat="42.65325" lon="-1.613539">
        <time>1970-01-01T00:00:00+00:00</time>
        <ele>826.0</ele>
      </trkpt>
      <trkpt lat="42.653193" lon="-1.613418">
        <time>1970-01-01T00:00:00+00:00</time>
        <ele>826.0</ele>
      </trkpt>
      <trkpt lat="42.65319" lon="-1.613367">
        <time>1970-01-01T00:00:00+00:00</time>
        <ele>826.0</ele>
      </trkpt>
      <trkpt lat="42.653053" lon="-1.613296">
        <time>1970-01-01T00:00:00+00:00</time>
        <ele>827.0</ele>
      </trkpt>
      <trkpt lat="42.652994" lon="-1.613289">
        <time>1970-01-01T00:00:00+00:00</time>
        <ele>828.0</ele>
      </trkpt>
      <trkpt lat="42.652923" lon="-1.61332">
        <time>1970-01-01T00:00:00+00:00</time>
        <ele>830.0</ele>
      </trkpt>
      <trkpt lat="42.652802" lon="-1.613234">
        <time>1970-01-01T00:00:00+00:00</time>
        <ele>830.0</ele>
      </trkpt>
      <trkpt lat="42.652702" lon="-1.613122">
        <time>1970-01-01T00:00:00+00:00</time>
        <ele>827.0</ele>
      </trkpt>
      <trkpt lat="42.652564" lon="-1.613077">
        <time>1970-01-01T00:00:00+00:00</time>
        <ele>824.0</ele>
      </trkpt>
      <trkpt lat="42.652332" lon="-1.613105">
        <time>1970-01-01T00:00:00+00:00</time>
        <ele>822.0</ele>
      </trkpt>
      <trkpt lat="42.652308" lon="-1.613143">
        <time>1970-01-01T00:00:00+00:00</time>
        <ele>823.0</ele>
      </trkpt>
      <trkpt lat="42.652311" lon="-1.613284">
        <time>1970-01-01T00:00:00+00:00</time>
        <ele>826.0</ele>
      </trkpt>
      <trkpt lat="42.652294" lon="-1.613358">
        <time>1970-01-01T00:00:00+00:00</time>
        <ele>828.0</ele>
      </trkpt>
      <trkpt lat="42.652316" lon="-1.613391">
        <time>1970-01-01T00:00:00+00:00</time>
        <ele>829.0</ele>
      </trkpt>
      <trkpt lat="42.652367" lon="-1.613403">
        <time>1970-01-01T00:00:00+00:00</time>
        <ele>830.0</ele>
      </trkpt>
      <trkpt lat="42.652403" lon="-1.613445">
        <time>1970-01-01T00:00:00+00:00</time>
        <ele>832.0</ele>
      </trkpt>
      <trkpt lat="42.652403" lon="-1.613445">
        <time>1970-01-01T00:00:00+00:00</time>
        <ele>832.0</ele>
      </trkpt>
      <trkpt lat="42.652367" lon="-1.613403">
        <time>1970-01-01T00:00:00+00:00</time>
        <ele>830.0</ele>
      </trkpt>
      <trkpt lat="42.652316" lon="-1.613391">
        <time>1970-01-01T00:00:00+00:00</time>
        <ele>829.0</ele>
      </trkpt>
      <trkpt lat="42.652294" lon="-1.613358">
        <time>1970-01-01T00:00:00+00:00</time>
        <ele>828.0</ele>
      </trkpt>
      <trkpt lat="42.652311" lon="-1.613284">
        <time>1970-01-01T00:00:00+00:00</time>
        <ele>826.0</ele>
      </trkpt>
      <trkpt lat="42.652308" lon="-1.613143">
        <time>1970-01-01T00:00:00+00:00</time>
        <ele>823.0</ele>
      </trkpt>
      <trkpt lat="42.652332" lon="-1.613105">
        <time>1970-01-01T00:00:00+00:00</time>
        <ele>822.0</ele>
      </trkpt>
      <trkpt lat="42.652564" lon="-1.613077">
        <time>1970-01-01T00:00:00+00:00</time>
        <ele>824.0</ele>
      </trkpt>
      <trkpt lat="42.652702" lon="-1.613122">
        <time>1970-01-01T00:00:00+00:00</time>
        <ele>827.0</ele>
      </trkpt>
      <trkpt lat="42.652802" lon="-1.613234">
        <time>1970-01-01T00:00:00+00:00</time>
        <ele>830.0</ele>
      </trkpt>
      <trkpt lat="42.652923" lon="-1.61332">
        <time>1970-01-01T00:00:00+00:00</time>
        <ele>830.0</ele>
      </trkpt>
      <trkpt lat="42.652994" lon="-1.613289">
        <time>1970-01-01T00:00:00+00:00</time>
        <ele>828.0</ele>
      </trkpt>
      <trkpt lat="42.653053" lon="-1.613296">
        <time>1970-01-01T00:00:00+00:00</time>
        <ele>827.0</ele>
      </trkpt>
      <trkpt lat="42.65319" lon="-1.613367">
        <time>1970-01-01T00:00:00+00:00</time>
        <ele>826.0</ele>
      </trkpt>
      <trkpt lat="42.653193" lon="-1.613418">
        <time>1970-01-01T00:00:00+00:00</time>
        <ele>826.0</ele>
      </trkpt>
      <trkpt lat="42.65325" lon="-1.613539">
        <time>1970-01-01T00:00:00+00:00</time>
        <ele>826.0</ele>
      </trkpt>
      <trkpt lat="42.653318" lon="-1.613573">
        <time>1970-01-01T00:00:00+00:00</time>
        <ele>825.0</ele>
      </trkpt>
      <trkpt lat="42.653418" lon="-1.613678">
        <time>1970-01-01T00:00:00+00:00</time>
        <ele>824.0</ele>
      </trkpt>
      <trkpt lat="42.65346" lon="-1.613849">
        <time>1970-01-01T00:00:00+00:00</time>
        <ele>823.0</ele>
      </trkpt>
      <trkpt lat="42.65369" lon="-1.614093">
        <time>1970-01-01T00:00:00+00:00</time>
        <ele>821.0</ele>
      </trkpt>
      <trkpt lat="42.653746" lon="-1.614245">
        <time>1970-01-01T00:00:00+00:00</time>
        <ele>820.0</ele>
      </trkpt>
      <trkpt lat="42.653763" lon="-1.614376">
        <time>1970-01-01T00:00:00+00:00</time>
        <ele>817.0</ele>
      </trkpt>
      <trkpt lat="42.653846" lon="-1.614593">
        <time>1970-01-01T00:00:00+00:00</time>
        <ele>814.0</ele>
      </trkpt>
      <trkpt lat="42.653944" lon="-1.614655">
        <time>1970-01-01T00:00:00+00:00</time>
        <ele>814.0</ele>
      </trkpt>
      <trkpt lat="42.653991" lon="-1.614744">
        <time>1970-01-01T00:00:00+00:00</time>
        <ele>813.0</ele>
      </trkpt>
      <trkpt lat="42.654065" lon="-1.614797">
        <time>1970-01-01T00:00:00+00:00</time>
        <ele>815.0</ele>
      </trkpt>
      <trkpt lat="42.654047" lon="-1.615116">
        <time>1970-01-01T00:00:00+00:00</time>
        <ele>811.0</ele>
      </trkpt>
      <trkpt lat="42.654011" lon="-1.615274">
        <time>1970-01-01T00:00:00+00:00</time>
        <ele>809.0</ele>
      </trkpt>
      <trkpt lat="42.653897" lon="-1.615436">
        <time>1970-01-01T00:00:00+00:00</time>
        <ele>804.0</ele>
      </trkpt>
      <trkpt lat="42.65379" lon="-1.615548">
        <time>1970-01-01T00:00:00+00:00</time>
        <ele>799.0</ele>
      </trkpt>
      <trkpt lat="42.653749" lon="-1.615619">
        <time>1970-01-01T00:00:00+00:00</time>
        <ele>797.0</ele>
      </trkpt>
      <trkpt lat="42.653709" lon="-1.616061">
        <time>1970-01-01T00:00:00+00:00</time>
        <ele>793.0</ele>
      </trkpt>
      <trkpt lat="42.653753" lon="-1.616445">
        <time>1970-01-01T00:00:00+00:00</time>
        <ele>791.0</ele>
      </trkpt>
      <trkpt lat="42.653742" lon="-1.616516">
        <time>1970-01-01T00:00:00+00:00</time>
        <ele>790.0</ele>
      </trkpt>
      <trkpt lat="42.653686" lon="-1.616592">
        <time>1970-01-01T00:00:00+00:00</time>
        <ele>786.0</ele>
      </trkpt>
      <trkpt lat="42.653633" lon="-1.616738">
        <time>1970-01-01T00:00:00+00:00</time>
        <ele>781.0</ele>
      </trkpt>
      <trkpt lat="42.653755" lon="-1.617232">
        <time>1970-01-01T00:00:00+00:00</time>
        <ele>775.0</ele>
      </trkpt>
      <trkpt lat="42.653728" lon="-1.617353">
        <time>1970-01-01T00:00:00+00:00</time>
        <ele>772.0</ele>
      </trkpt>
      <trkpt lat="42.653744" lon="-1.617475">
        <time>1970-01-01T00:00:00+00:00</time>
        <ele>771.0</ele>
      </trkpt>
      <trkpt lat="42.653712" lon="-1.617921">
        <time>1970-01-01T00:00:00+00:00</time>
        <ele>763.0</ele>
      </trkpt>
      <trkpt lat="42.653781" lon="-1.618078">
        <time>1970-01-01T00:00:00+00:00</time>
        <ele>763.0</ele>
      </trkpt>
      <trkpt lat="42.653856" lon="-1.618412">
        <time>1970-01-01T00:00:00+00:00</time>
        <ele>760.0</ele>
      </trkpt>
      <trkpt lat="42.653826" lon="-1.618619">
        <time>1970-01-01T00:00:00+00:00</time>
        <ele>756.0</ele>
      </trkpt>
      <trkpt lat="42.653769" lon="-1.618863">
        <time>1970-01-01T00:00:00+00:00</time>
        <ele>751.0</ele>
      </trkpt>
      <trkpt lat="42.653707" lon="-1.61903">
        <time>1970-01-01T00:00:00+00:00</time>
        <ele>747.0</ele>
      </trkpt>
      <trkpt lat="42.653648" lon="-1.619361">
        <time>1970-01-01T00:00:00+00:00</time>
        <ele>744.0</ele>
      </trkpt>
      <trkpt lat="42.653679" lon="-1.619719">
        <time>1970-01-01T00:00:00+00:00</time>
        <ele>741.0</ele>
      </trkpt>
      <trkpt lat="42.653826" lon="-1.619883">
        <time>1970-01-01T00:00:00+00:00</time>
        <ele>740.0</ele>
      </trkpt>
      <trkpt lat="42.653865" lon="-1.619988">
        <time>1970-01-01T00:00:00+00:00</time>
        <ele>738.0</ele>
      </trkpt>
      <trkpt lat="42.653888" lon="-1.620124">
        <time>1970-01-01T00:00:00+00:00</time>
        <ele>735.0</ele>
      </trkpt>
      <trkpt lat="42.653886" lon="-1.620217">
        <time>1970-01-01T00:00:00+00:00</time>
        <ele>733.0</ele>
      </trkpt>
      <trkpt lat="42.653828" lon="-1.62036">
        <time>1970-01-01T00:00:00+00:00</time>
        <ele>731.0</ele>
      </trkpt>
      <trkpt lat="42.653793" lon="-1.620701">
        <time>1970-01-01T00:00:00+00:00</time>
        <ele>727.0</ele>
      </trkpt>
      <trkpt lat="42.653815" lon="-1.620762">
        <time>1970-01-01T00:00:00+00:00</time>
        <ele>726.0</ele>
      </trkpt>
      <trkpt lat="42.653954" lon="-1.620843">
        <time>1970-01-01T00:00:00+00:00</time>
        <ele>724.0</ele>
      </trkpt>
      <trkpt lat="42.654221" lon="-1.620878">
        <time>1970-01-01T00:00:00+00:00</time>
        <ele>722.0</ele>
      </trkpt>
      <trkpt lat="42.654272" lon="-1.620918">
        <time>1970-01-01T00:00:00+00:00</time>
        <ele>722.0</ele>
      </trkpt>
      <trkpt lat="42.654289" lon="-1.620973">
        <time>1970-01-01T00:00:00+00:00</time>
        <ele>721.0</ele>
      </trkpt>
      <trkpt lat="42.654155" lon="-1.621297">
        <time>1970-01-01T00:00:00+00:00</time>
        <ele>717.0</ele>
      </trkpt>
      <trkpt lat="42.654084" lon="-1.621416">
        <time>1970-01-01T00:00:00+00:00</time>
        <ele>715.0</ele>
      </trkpt>
      <trkpt lat="42.654073" lon="-1.621622">
        <time>1970-01-01T00:00:00+00:00</time>
        <ele>712.0</ele>
      </trkpt>
      <trkpt lat="42.654" lon="-1.621755">
        <time>1970-01-01T00:00:00+00:00</time>
        <ele>710.0</ele>
      </trkpt>
      <trkpt lat="42.653934" lon="-1.621803">
        <time>1970-01-01T00:00:00+00:00</time>
        <ele>710.0</ele>
      </trkpt>
      <trkpt lat="42.653907" lon="-1.621857">
        <time>1970-01-01T00:00:00+00:00</time>
        <ele>709.0</ele>
      </trkpt>
      <trkpt lat="42.65389" lon="-1.62189">
        <time>1970-01-01T00:00:00+00:00</time>
        <ele>709.0</ele>
      </trkpt>
      <trkpt lat="42.653726" lon="-1.622363">
        <time>1970-01-01T00:00:00+00:00</time>
        <ele>705.0</ele>
      </trkpt>
      <trkpt lat="42.653553" lon="-1.622659">
        <time>1970-01-01T00:00:00+00:00</time>
        <ele>702.0</ele>
      </trkpt>
      <trkpt lat="42.653397" lon="-1.623016">
        <time>1970-01-01T00:00:00+00:00</time>
        <ele>698.0</ele>
      </trkpt>
      <trkpt lat="42.653268" lon="-1.623234">
        <time>1970-01-01T00:00:00+00:00</time>
        <ele>693.0</ele>
      </trkpt>
      <trkpt lat="42.65321" lon="-1.623364">
        <time>1970-01-01T00:00:00+00:00</time>
        <ele>690.0</ele>
      </trkpt>
      <trkpt lat="42.653091" lon="-1.623719">
        <time>1970-01-01T00:00:00+00:00</time>
        <ele>684.0</ele>
      </trkpt>
      <trkpt lat="42.653026" lon="-1.624052">
        <time>1970-01-01T00:00:00+00:00</time>
        <ele>678.0</ele>
      </trkpt>
      <trkpt lat="42.653024" lon="-1.624182">
        <time>1970-01-01T00:00:00+00:00</time>
        <ele>676.0</ele>
      </trkpt>
      <trkpt lat="42.653046" lon="-1.624374">
        <time>1970-01-01T00:00:00+00:00</time>
        <ele>674.0</ele>
      </trkpt>
      <trkpt lat="42.653037" lon="-1.624452">
        <time>1970-01-01T00:00:00+00:00</time>
        <ele>673.0</ele>
      </trkpt>
      <trkpt lat="42.652925" lon="-1.62476">
        <time>1970-01-01T00:00:00+00:00</time>
        <ele>667.0</ele>
      </trkpt>
      <trkpt lat="42.652903" lon="-1.624779">
        <time>1970-01-01T00:00:00+00:00</time>
        <ele>667.0</ele>
      </trkpt>
      <trkpt lat="42.652667" lon="-1.625216">
        <time>1970-01-01T00:00:00+00:00</time>
        <ele>661.0</ele>
      </trkpt>
      <trkpt lat="42.652486" lon="-1.625632">
        <time>1970-01-01T00:00:00+00:00</time>
        <ele>657.0</ele>
      </trkpt>
      <trkpt lat="42.65242" lon="-1.62572">
        <time>1970-01-01T00:00:00+00:00</time>
        <ele>656.0</ele>
      </trkpt>
      <trkpt lat="42.6522" lon="-1.625911">
        <time>1970-01-01T00:00:00+00:00</time>
        <ele>653.0</ele>
      </trkpt>
      <trkpt lat="42.652098" lon="-1.626043">
        <time>1970-01-01T00:00:00+00:00</time>
        <ele>652.0</ele>
      </trkpt>
      <trkpt lat="42.652057" lon="-1.626068">
        <time>1970-01-01T00:00:00+00:00</time>
        <ele>651.0</ele>
      </trkpt>
      <trkpt lat="42.652026" lon="-1.626128">
        <time>1970-01-01T00:00:00+00:00</time>
        <ele>651.0</ele>
      </trkpt>
      <trkpt lat="42.651965" lon="-1.62618">
        <time>1970-01-01T00:00:00+00:00</time>
        <ele>650.0</ele>
      </trkpt>
      <trkpt lat="42.651847" lon="-1.626249">
        <time>1970-01-01T00:00:00+00:00</time>
        <ele>649.0</ele>
      </trkpt>
      <trkpt lat="42.651585" lon="-1.626481">
        <time>1970-01-01T00:00:00+00:00</time>
        <ele>645.0</ele>
      </trkpt>
      <trkpt lat="42.651461" lon="-1.626693">
        <time>1970-01-01T00:00:00+00:00</time>
        <ele>642.0</ele>
      </trkpt>
      <trkpt lat="42.651036" lon="-1.627649">
        <time>1970-01-01T00:00:00+00:00</time>
        <ele>632.0</ele>
      </trkpt>
      <trkpt lat="42.650858" lon="-1.628084">
        <time>1970-01-01T00:00:00+00:00</time>
        <ele>628.0</ele>
      </trkpt>
      <trkpt lat="42.650672" lon="-1.62881">
        <time>1970-01-01T00:00:00+00:00</time>
        <ele>623.0</ele>
      </trkpt>
      <trkpt lat="42.650582" lon="-1.629072">
        <time>1970-01-01T00:00:00+00:00</time>
        <ele>622.0</ele>
      </trkpt>
      <trkpt lat="42.650542" lon="-1.629124">
        <time>1970-01-01T00:00:00+00:00</time>
        <ele>622.0</ele>
      </trkpt>
      <trkpt lat="42.650465" lon="-1.629224">
        <time>1970-01-01T00:00:00+00:00</time>
        <ele>621.0</ele>
      </trkpt>
      <trkpt lat="42.650361" lon="-1.629572">
        <time>1970-01-01T00:00:00+00:00</time>
        <ele>618.0</ele>
      </trkpt>
      <trkpt lat="42.650314" lon="-1.629867">
        <time>1970-01-01T00:00:00+00:00</time>
        <ele>617.0</ele>
      </trkpt>
      <trkpt lat="42.650256" lon="-1.630055">
        <time>1970-01-01T00:00:00+00:00</time>
        <ele>615.0</ele>
      </trkpt>
      <trkpt lat="42.649997" lon="-1.630611">
        <time>1970-01-01T00:00:00+00:00</time>
        <ele>612.0</ele>
      </trkpt>
      <trkpt lat="42.649955" lon="-1.630672">
        <time>1970-01-01T00:00:00+00:00</time>
        <ele>612.0</ele>
      </trkpt>
      <trkpt lat="42.649806" lon="-1.630885">
        <time>1970-01-01T00:00:00+00:00</time>
        <ele>611.0</ele>
      </trkpt>
      <trkpt lat="42.649296" lon="-1.631371">
        <time>1970-01-01T00:00:00+00:00</time>
        <ele>607.0</ele>
      </trkpt>
      <trkpt lat="42.649211" lon="-1.631422">
        <time>1970-01-01T00:00:00+00:00</time>
        <ele>606.0</ele>
      </trkpt>
      <trkpt lat="42.649267" lon="-1.631763">
        <time>1970-01-01T00:00:00+00:00</time>
        <ele>602.0</ele>
      </trkpt>
      <trkpt lat="42.649585" lon="-1.633019">
        <time>1970-01-01T00:00:00+00:00</time>
        <ele>596.0</ele>
      </trkpt>
      <trkpt lat="42.649852" lon="-1.634484">
        <time>1970-01-01T00:00:00+00:00</time>
        <ele>606.0</ele>
      </trkpt>
      <trkpt lat="42.650278" lon="-1.636967">
        <time>1970-01-01T00:00:00+00:00</time>
        <ele>604.0</ele>
      </trkpt>
      <trkpt lat="42.650409" lon="-1.637907">
        <time>1970-01-01T00:00:00+00:00</time>
        <ele>602.0</ele>
      </trkpt>
      <trkpt lat="42.650461" lon="-1.638634">
        <time>1970-01-01T00:00:00+00:00</time>
        <ele>599.0</ele>
      </trkpt>
      <trkpt lat="42.650465" lon="-1.638682">
        <time>1970-01-01T00:00:00+00:00</time>
        <ele>599.0</ele>
      </trkpt>
      <trkpt lat="42.650558" lon="-1.639343">
        <time>1970-01-01T00:00:00+00:00</time>
        <ele>598.0</ele>
      </trkpt>
      <trkpt lat="42.650714" lon="-1.640076">
        <time>1970-01-01T00:00:00+00:00</time>
        <ele>598.0</ele>
      </trkpt>
      <trkpt lat="42.650814" lon="-1.640668">
        <time>1970-01-01T00:00:00+00:00</time>
        <ele>597.0</ele>
      </trkpt>
      <trkpt lat="42.650822" lon="-1.641205">
        <time>1970-01-01T00:00:00+00:00</time>
        <ele>596.0</ele>
      </trkpt>
      <trkpt lat="42.650803" lon="-1.642125">
        <time>1970-01-01T00:00:00+00:00</time>
        <ele>593.0</ele>
      </trkpt>
      <trkpt lat="42.6508" lon="-1.642255">
        <time>1970-01-01T00:00:00+00:00</time>
        <ele>593.0</ele>
      </trkpt>
      <trkpt lat="42.650787" lon="-1.642728">
        <time>1970-01-01T00:00:00+00:00</time>
        <ele>592.0</ele>
      </trkpt>
      <trkpt lat="42.650726" lon="-1.642933">
        <time>1970-01-01T00:00:00+00:00</time>
        <ele>592.0</ele>
      </trkpt>
      <trkpt lat="42.650625" lon="-1.643067">
        <time>1970-01-01T00:00:00+00:00</time>
        <ele>592.0</ele>
      </trkpt>
      <trkpt lat="42.650491" lon="-1.643195">
        <time>1970-01-01T00:00:00+00:00</time>
        <ele>591.0</ele>
      </trkpt>
      <trkpt lat="42.650313" lon="-1.643217">
        <time>1970-01-01T00:00:00+00:00</time>
        <ele>590.0</ele>
      </trkpt>
      <trkpt lat="42.650041" lon="-1.643178">
        <time>1970-01-01T00:00:00+00:00</time>
        <ele>590.0</ele>
      </trkpt>
      <trkpt lat="42.649508" lon="-1.642925">
        <time>1970-01-01T00:00:00+00:00</time>
        <ele>590.0</ele>
      </trkpt>
      <trkpt lat="42.647257" lon="-1.642303">
        <time>1970-01-01T00:00:00+00:00</time>
        <ele>589.0</ele>
      </trkpt>
      <trkpt lat="42.638369" lon="-1.639848">
        <time>1970-01-01T00:00:00+00:00</time>
        <ele>572.0</ele>
      </trkpt>
      <trkpt lat="42.636872" lon="-1.639431">
        <time>1970-01-01T00:00:00+00:00</time>
        <ele>564.0</ele>
      </trkpt>
      <trkpt lat="42.635926" lon="-1.639129">
        <time>1970-01-01T00:00:00+00:00</time>
        <ele>563.0</ele>
      </trkpt>
      <trkpt lat="42.635026" lon="-1.638979">
        <time>1970-01-01T00:00:00+00:00</time>
        <ele>561.0</ele>
      </trkpt>
      <trkpt lat="42.632561" lon="-1.639013">
        <time>1970-01-01T00:00:00+00:00</time>
        <ele>553.0</ele>
      </trkpt>
      <trkpt lat="42.630525" lon="-1.63906">
        <time>1970-01-01T00:00:00+00:00</time>
        <ele>542.0</ele>
      </trkpt>
      <trkpt lat="42.629187" lon="-1.639196">
        <time>1970-01-01T00:00:00+00:00</time>
        <ele>541.0</ele>
      </trkpt>
      <trkpt lat="42.62869" lon="-1.639165">
        <time>1970-01-01T00:00:00+00:00</time>
        <ele>540.0</ele>
      </trkpt>
      <trkpt lat="42.628368" lon="-1.639067">
        <time>1970-01-01T00:00:00+00:00</time>
        <ele>539.0</ele>
      </trkpt>
      <trkpt lat="42.627443" lon="-1.63861">
        <time>1970-01-01T00:00:00+00:00</time>
        <ele>538.0</ele>
      </trkpt>
      <trkpt lat="42.627174" lon="-1.638508">
        <time>1970-01-01T00:00:00+00:00</time>
        <ele>536.0</ele>
      </trkpt>
      <trkpt lat="42.626363" lon="-1.638371">
        <time>1970-01-01T00:00:00+00:00</time>
        <ele>534.0</ele>
      </trkpt>
      <trkpt lat="42.623942" lon="-1.638042">
        <time>1970-01-01T00:00:00+00:00</time>
        <ele>531.0</ele>
      </trkpt>
      <trkpt lat="42.623187" lon="-1.638002">
        <time>1970-01-01T00:00:00+00:00</time>
        <ele>527.0</ele>
      </trkpt>
      <trkpt lat="42.622496" lon="-1.638054">
        <time>1970-01-01T00:00:00+00:00</time>
        <ele>527.0</ele>
      </trkpt>
      <trkpt lat="42.621935" lon="-1.638115">
        <time>1970-01-01T00:00:00+00:00</time>
        <ele>527.0</ele>
      </trkpt>
      <trkpt lat="42.620887" lon="-1.638264">
        <time>1970-01-01T00:00:00+00:00</time>
        <ele>532.0</ele>
      </trkpt>
      <trkpt lat="42.620466" lon="-1.638311">
        <time>1970-01-01T00:00:00+00:00</time>
        <ele>528.0</ele>
      </trkpt>
      <trkpt lat="42.616707" lon="-1.638791">
        <time>1970-01-01T00:00:00+00:00</time>
        <ele>547.0</ele>
      </trkpt>
      <trkpt lat="42.615902" lon="-1.638951">
        <time>1970-01-01T00:00:00+00:00</time>
        <ele>547.0</ele>
      </trkpt>
      <trkpt lat="42.614849" lon="-1.639251">
        <time>1970-01-01T00:00:00+00:00</time>
        <ele>545.0</ele>
      </trkpt>
      <trkpt lat="42.614051" lon="-1.639494">
        <time>1970-01-01T00:00:00+00:00</time>
        <ele>545.0</ele>
      </trkpt>
      <trkpt lat="42.613953" lon="-1.639793">
        <time>1970-01-01T00:00:00+00:00</time>
        <ele>545.0</ele>
      </trkpt>
      <trkpt lat="42.61383" lon="-1.639836">
        <time>1970-01-01T00:00:00+00:00</time>
        <ele>545.0</ele>
      </trkpt>
    </trkseg>
  </trk>
</gpx>
